{"data":{"norad_id":53468,"epoch":"2026-09-21T00:00:02.000160Z","epoch_age_seconds":35811,"freshness":"FRESH","line1":"1 53468U 22099D   26264.00002315  .00640659  00000+0  29851-1 0  9994","line2":"2 53468  97.2848  17.8753 0001612  87.7254  99.3191 15.17688828  5696","mean_motion":15.17688828,"eccentricity":0.0001612,"inclination_deg":97.2848,"raan_deg":17.8753,"arg_perigee_deg":87.7254,"mean_anomaly_deg":99.3191,"bstar":0.029851,"rev_number":569,"period_min":94.881109581443,"perigee_km":511.71673896778,"apogee_km":513.93838594271,"semimajor_km":6890.9645624552,"source":"CELESTRAK","updated_at":"2026-09-21T09:00:32.886388Z"}}